Regional Weather Roundup
Issued by NWS

Home | Current Version | Previous Version | Graphics & Text | Print | Product List | Glossary On
Versions: 1 2 3 4 5 6 7 8 9 10 11 12 13 14 15 16 17 18 19 20 21 22 23 24 25 26 27 28 29 30 31 32 33 34 35 36 37 38 39 40 41 42 43 44 45 46 47 48 49 50
460
ASUS43 KLMK 141510
RWRKY
KENTUCKY REGIONAL WEATHER ROUNDUP
NATIONAL WEATHER SERVICE LOUISVILLE KY
1000 AM EST SUN FEB 14 2016

NOTE "FAIR" INDICATES FEW OR NO CLOUDS BELOW 12,000 FEET
WITH NO SIGNIFICANT WEATHER AND/OR OBSTRUCTIONS TO VISIBILITY.

KYZ001>023-026-027-061>063-070>075-141600-
WESTERN AND SOUTH CENTRAL KENTUCKY

CITY           SKY/WX    TMP DP  RH WIND       PRES   REMARKS
PADUCAH        SNOW      23  20  88 SE9       30.24F VSB<1/4 WCI  13
HENDERSON      CLOUDY    21  16  79 E14       30.28F WCI   8
OWENSBORO      CLOUDY    22  16  78 SE14      30.32F WCI   9
HOPKINSVILLE   FLURRIES  27  12  54 E13       30.26F WCI  16
BOWLING GREEN  CLOUDY    23  15  71 E12       30.34F WCI  12
GLASGOW        CLOUDY    21  15  77 E14       30.33F WCI   8
$$

KYZ024-025-028>034-038-045-046-053-141600-
NORTH CENTRAL KENTUCKY

CITY           SKY/WX    TMP DP  RH WIND       PRES   REMARKS
LOUISVILLE/SDF FLURRIES  20  11  68 SE15      30.38F WCI   6
LOUISVILLE/LOU CLOUDY    19  12  74 SE8       30.39F WCI   9
FORT KNOX      CLOUDY    19  10  66 E14       30.32F WCI   6
$$

KYZ035>037-039>044-047>052-055>060-089>105-141600-
NORTHEAST KENTUCKY

CITY           SKY/WX    TMP DP  RH WIND       PRES   REMARKS
LEXINGTON      LGT SNOW  17   7  64 E10       30.39F WCI   5
COVINGTON      CLOUDY    17   6  62 SE10      30.40F WCI   5
FRANKFORT      LGT SNOW  17  11  77 E9        30.38F VSB 1   WCI   6
$$

KYZ054-064>069-076>088-106>120-141600-
SOUTHEAST KENTUCKY

CITY           SKY/WX    TMP DP  RH WIND       PRES   REMARKS
JACKSON        CLOUDY    15   2  56 VRB5      30.38F WCI   8
LONDON         CLOUDY    19   3  49 E7        30.37F WCI  10
SOMERSET       LGT SNOW  18  14  86 E6        30.39F WCI   9
MIDDLESBORO    CLOUDY    21   4  48 SE3       30.39
MONTICELLO     LGT SNOW  20  12  71 VRB6      30.37F WCI  12
$$





USA.gov is the U.S. government's official web portal to all federal, state and local government web resources and services.